Location: Kaarina
(60.4167°N, 22.4167°E)
Time: 09:33:38
(UTC+03:00)

NOSS 7 (D) - Pass Details

Date: 24 August 2019
Orbit: 331 x 832 km, 63.3° (Epoch: 14 September)

Event Time Altitude Azimuth Distance (km) Brightness Sun altitude
Rises 23:12:15 0° 291° (WNW) 2,117 8.8 -13.3°
Reaches altitude 10° 23:14:11 10° 295° (WNW) 1,288 7.7 -13.5°
Maximum altitude 23:16:57 59° 16° (NNE) 413 4.4 -13.7°
Enters shadow 23:18:57 18° 94° (E) 983 5.8 -13.8°
